FENGYUN 1C DEB, 30369

Orbit data source: Space-Track

FENGYUN 1C DEB, 30369 is space debris in SSO originally from a launch on Mon, 10 May 1999 UTC launched from the Taiyaun Space Center, China (TSC). Fengyun 1C debris stems from the Chinese weather satellite Fengyun-1C, which was intentionally destroyed by a Chinese anti-satellite missile in 2007. This event dramatically increased the amount of space debris, with thousands of trackable fragments posing hazards to satellites and human spaceflight. The Fengyun 1C debris cloud has become a focal point in discussions about space sustainability and the need for international regulations to prevent the creation of new debris.

Loading next visibility...
Identifier
30369, 1999-025ACG
Orbit
SSO
Country
Flag of CNCN / PRC
Related business
Manufacturer
Unknown
Mission
Spacecraft
Bus & Motor
Unknown
Mass
Unknown
Launch date (UTC)
1999-05-10 (27 years ago)
Launch vehicle
Unknown
Launch site
Taiyaun Space Center, China (TSC)
Object type
Payload
Rocket body
Debris
Shape & HBR
Unknown shape, 0.1 m
Radar Cross Section
Medium (>0.1 m² and <1 m²)

Expand to show TLE details & history
Last TLE update: 6 hours ago

TLE from 6 hours ago
0 FENGYUN 1C DEB
1 30369U 99025ACG 26208.47515264  .00000248  00000-0  15184-3 0  9994
2 30369  98.7301 204.8764 0098028 271.5211 241.4290 14.12237668  4475
Epoch: 2026-07-27T11:24Z
TLE epoch observation values (Epoch: 2026-07-27T11:24:13.188Z)
Latitude
27.71921°
Longitude
-86.73308°
Altitude
889.545 km
Speed
7.392 km/s
True Right ascension
01h 57m 55s
True Declination
27° 34' 50"
Sunlit
Object was in daylight at epoch
Visualization orbit readout
Latitude
Unknown
Longitude
Unknown
Altitude
Unknown
Speed
Unknown
Apparent Right ascension
Unknown
Apparent Declination
Unknown
Sunlit
N/A
Visualization observer readout
Local Sidereal Time
07:11:47
Azimuth
Unknown
Elevation
Unknown
Doppler factor
Unknown
Orbital elements
Apogee altitude
919.739 km
Perigee altitude
778.049 km
Semi-major axis
7,227.031 km
Eccentricity
0.0098
Inclination
98.7301°
RAAN
204.8764°
Arg. of periapsis
271.5211°
True anomaly
240.44827°
Mean anomaly
241.429°
Eccentric anomaly
240.93806°
Mean motion
3.53267 °/min
Orbital period
101.91 mins
BSTAR
0.00015184
Loading maneuver chart data...
Computing Atmospheric mass density...

Documentation

Showing up to 5 results
|